This is the latest recevied weather packets stored in our database for station/object KG4ZVW. If no packets are shown the sender has not sent any weather packets the latest 10 day(s).
| Time | Temp. | Humidity | Pressure | Rain* | Wind** | Luminosity | Snow |
|---|---|---|---|---|---|---|---|
| 1777303414 | 26.67° C | 75% | 1016.1 hPa | 0 mm | - | 824 W/m² | - |
| 1777303109 | 26.11° C | 77% | 1016.1 hPa | 0 mm | - | 814 W/m² | - |
| 1777302808 | 25.56° C | 77% | 1016.1 hPa | 0 mm | - | 807 W/m² | - |
| 1777302502 | 26.11° C | 76% | 1016 hPa | 0 mm | - | 243 W/m² | - |
| 1777302200 | 26.67° C | 74% | 1016 hPa | 0 mm | - | 146 W/m² | - |
| 1777301913 | 27.78° C | 72% | 1016 hPa | 0 mm | - | 72 W/m² | - |
| 1777301608 | 27.78° C | 72% | 1015.7 hPa | 0 mm | - | 199 W/m² | - |
| 1777301307 | 27.78° C | 73% | 1015.7 hPa | 0 mm | - | 853 W/m² | - |
| 1777301024 | 27.22° C | 73% | 1015.7 hPa | 0 mm | - | 721 W/m² | - |
| 1777300718 | 27.22° C | 73% | 1015.6 hPa | 0 mm | - | 302 W/m² | - |
| 1777300413 | 26.67° C | 75% | 1015.6 hPa | 0 mm | - | 853 W/m² | - |
| 1777300108 | 26.67° C | 74% | 1015.6 hPa | 0 mm | - | 241 W/m² | - |
| 1777299823 | 26.67° C | 75% | 1015.5 hPa | 0 mm | - | 163 W/m² | - |
| 1777299518 | 26.67° C | 74% | 1015.5 hPa | 0 mm | - | 216 W/m² | - |
| 1777299214 | 26.67° C | 73% | 1015.5 hPa | 0 mm | - | 186 W/m² | - |
| 1777298908 | 27.22° C | 73% | 1015.3 hPa | 0 mm | - | 156 W/m² | - |
| 1777298602 | 26.67° C | 72% | 1015.3 hPa | 0 mm | - | 647 W/m² | - |
| 1777298321 | 26.67° C | 73% | 1015.3 hPa | 0 mm | - | 580 W/m² | - |
| 1777298016 | 26.67° C | 74% | 1015.1 hPa | 0 mm | - | 608 W/m² | - |
| 1777297713 | 26.67° C | 76% | 1015.1 hPa | 0 mm | - | 598 W/m² | - |
| 1777297408 | 26.11° C | 77% | 1015.1 hPa | 0 mm | - | 566 W/m² | - |
| 1777297106 | 26.11° C | 78% | 1015 hPa | 0 mm | - | 561 W/m² | - |
| 1777296804 | 26.11° C | 78% | 1015 hPa | 0 mm | - | 399 W/m² | - |
| 1777296518 | 26.11° C | 79% | 1015 hPa | 0 mm | - | 548 W/m² | - |
| 1777296214 | 25.56° C | 80% | 1014.9 hPa | 0 mm | - | 582 W/m² | - |
* Rain latest hour (hover to see other rain measurements)
** Current wind speed in m/s (hover to see current wind gust speed)